| time (UTC) | temp C | wind direction | speed KPH | gust KPH | rain 1hr cm | rain 24hr cm | rain mn cm | humidity % | barometer mb |
| 20260507084011 | 13 | 0 | 0.0 | 0.0 | 0.00 | 0.03 | 0.03 | 83 | 15.3 |
| 20260507082011 | 13 | 0 | 0.0 | 0.0 | 0.00 | 0.03 | 0.03 | 91 | 15.2 |
| 20260507081011 | 13 | 0 | 0.0 | 0.0 | 0.00 | 0.03 | 0.03 | 88 | 15.2 |
| 20260507075011 | 12 | 90 | 0.0 | 4.8 | 0.00 | 0.03 | 0.03 | 90 | 15.2 |
| 20260507074011 | 11 | 0 | 0.0 | 0.0 | 0.00 | 0.03 | 0.03 | 94 | 15.1 |
| 20260507073011 | 11 | 0 | 0.0 | 0.0 | 0.00 | 0.03 | 0.03 | 94 | 15.1 |
| 20260507072011 | 11 | 0 | 0.0 | 0.0 | 0.00 | 0.03 | 0.03 | 96 | 15.1 |
| 20260507071011 | 11 | 0 | 0.0 | 0.0 | 0.00 | 0.03 | 0.03 | 98 | 15.1 |
| 20260507070013 | 11 | 0 | 0.0 | 0.0 | 0.00 | 0.03 | 0.03 | 99 | 15.1 |
| 20260507065011 | 11 | 0 | 0.0 | 0.0 | 0.00 | 0.03 | 0.03 | 100 | 15.0 |
| 20260507064011 | 10 | 0 | 0.0 | 0.0 | 0.00 | 0.03 | 0.03 | 100 | 15.0 |
| 20260507063011 | 10 | 0 | 0.0 | 0.0 | 0.00 | 0.03 | 0.03 | 100 | 14.8 |
| 20260507062011 | 10 | 0 | 0.0 | 0.0 | 0.00 | 0.03 | 0.03 | 100 | 14.9 |
| 20260507061011 | 10 | 0 | 0.0 | 0.0 | 0.00 | 0.03 | 0.03 | 100 | 14.8 |
| 20260507060011 | 10 | 0 | 0.0 | 0.0 | 0.00 | 0.03 | 0.03 | 100 | 14.7 |
| 20260507055011 | 10 | 135 | 1.6 | 3.2 | 0.00 | 0.03 | 0.03 | 100 | 14.6 |
| 20260507054011 | 10 | 0 | 0.0 | 0.0 | 0.00 | 0.03 | 0.03 | 100 | 14.6 |
| 20260507053011 | 9 | 0 | 0.0 | 0.0 | 0.00 | 0.03 | 0.03 | 100 | 14.5 |
| 20260507051011 | 9 | 0 | 0.0 | 0.0 | 0.00 | 0.03 | 0.03 | 100 | 14.4 |
| 20260507045011 | 9 | 0 | 0.0 | 0.0 | 0.00 | 0.03 | 0.03 | 100 | 14.1 |
| 20260507044011 | 9 | 0 | 0.0 | 0.0 | 0.03 | 0.03 | 0.03 | 100 | 14.1 |
| 20260507043011 | 9 | 0 | 0.0 | 0.0 | 0.03 | 0.03 | 0.03 | 100 | 14.0 |
| 20260507042011 | 9 | 0 | 0.0 | 0.0 | 0.03 | 0.03 | 0.03 | 100 | 14.0 |
| 20260507041011 | 9 | 0 | 0.0 | 0.0 | 0.03 | 0.03 | 0.03 | 100 | 14.0 |
| 20260507040011 | 9 | 0 | 0.0 | 0.0 | 0.03 | 0.03 | 0.03 | 100 | 14.0 |
| 20260507035011 | 9 | 0 | 0.0 | 0.0 | 0.03 | 0.03 | 0.03 | 100 | 13.9 |
| 20260507034010 | 9 | 0 | 0.0 | 0.0 | 0.00 | 0.00 | 0.00 | 100 | 13.9 |
| 20260507033011 | 9 | 0 | 0.0 | 0.0 | 0.00 | 0.00 | 0.00 | 100 | 13.7 |
| 20260507032011 | 9 | 0 | 0.0 | 0.0 | 0.00 | 0.00 | 0.00 | 100 | 13.8 |
| 20260507031013 | 10 | 0 | 0.0 | 0.0 | 0.00 | 0.00 | 0.00 | 100 | 13.8 |
| 20260507030011 | 9 | 0 | 0.0 | 0.0 | 0.00 | 0.00 | 0.00 | 100 | 13.8 |
| 20260507025011 | 10 | 0 | 0.0 | 0.0 | 0.00 | 0.00 | 0.00 | 100 | 13.8 |
| 20260507024010 | 10 | 0 | 0.0 | 0.0 | 0.00 | 0.00 | 0.00 | 100 | 13.6 |
| 20260507023010 | 10 | 0 | 0.0 | 0.0 | 0.00 | 0.00 | 0.00 | 100 | 13.6 |
| 20260507022010 | 10 | 0 | 0.0 | 0.0 | 0.00 | 0.00 | 0.00 | 100 | 13.6 |
| 20260507021010 | 10 | 0 | 0.0 | 0.0 | 0.00 | 0.00 | 0.00 | 100 | 13.5 |
| 20260507020011 | 10 | 0 | 0.0 | 0.0 | 0.00 | 0.00 | 0.00 | 100 | 13.5 |
| 20260507015010 | 10 | 0 | 0.0 | 0.0 | 0.00 | 0.00 | 0.00 | 100 | 13.4 |
| 20260507014010 | 10 | 0 | 0.0 | 0.0 | 0.00 | 0.00 | 0.00 | 100 | 13.3 |
| 20260507013010 | 10 | 0 | 0.0 | 0.0 | 0.00 | 0.00 | 0.00 | 100 | 13.2 |
| 20260507012010 | 10 | 0 | 0.0 | 0.0 | 0.00 | 0.00 | 0.00 | 100 | 13.2 |
| 20260507010011 | 10 | 0 | 0.0 | 0.0 | 0.00 | 0.00 | 0.00 | 100 | 13.2 |
| 20260507005010 | 10 | 0 | 0.0 | 0.0 | 0.00 | 0.00 | 0.00 | 100 | 13.2 |
| 20260507004010 | 10 | 0 | 0.0 | 0.0 | 0.00 | 0.00 | 0.00 | 100 | 13.3 |
| 20260507003010 | 10 | 0 | 0.0 | 0.0 | 0.00 | 0.00 | 0.00 | 100 | 13.3 |
| 20260507002010 | 9 | 0 | 0.0 | 0.0 | 0.00 | 0.00 | 0.00 | 99 | 13.2 |
| 20260507000011 | 10 | 0 | 0.0 | 0.0 | 0.00 | 0.00 | 0.00 | 99 | 13.2 |
| 20260506235010 | 10 | 0 | 0.0 | 0.0 | 0.00 | 0.00 | 0.00 | 100 | 13.2 |
| 20260506234010 | 10 | 0 | 0.0 | 0.0 | 0.00 | 0.00 | 0.00 | 99 | 13.1 |
| 20260506233010 | 10 | 0 | 0.0 | 0.0 | 0.00 | 0.00 | 0.00 | 99 | 13.2 |
| 20260506232010 | 10 | 0 | 0.0 | 0.0 | 0.00 | 0.00 | 0.00 | 99 | 13.1 |
| 20260506231010 | 10 | 0 | 0.0 | 0.0 | 0.00 | 0.00 | 0.00 | 99 | 13.0 |
| 20260506230011 | 10 | 0 | 0.0 | 0.0 | 0.00 | 0.00 | 0.00 | 99 | 13.0 |
| 20260506224010 | 10 | 0 | 0.0 | 0.0 | 0.00 | 0.00 | 0.00 | 100 | 12.9 |
| 20260506223010 | 10 | 0 | 0.0 | 0.0 | 0.00 | 0.00 | 0.00 | 99 | 12.9 |
| 20260506222010 | 10 | 0 | 0.0 | 0.0 | 0.00 | 0.00 | 0.00 | 99 | 12.8 |
| 20260506221010 | 10 | 0 | 0.0 | 0.0 | 0.00 | 0.00 | 0.00 | 99 | 12.8 |
| 20260506220010 | 10 | 0 | 0.0 | 0.0 | 0.00 | 2.11 | 2.11 | 99 | 12.8 |
| 20260506215010 | 10 | 0 | 0.0 | 0.0 | 0.00 | 2.11 | 2.11 | 99 | 12.8 |
| 20260506214010 | 10 | 0 | 0.0 | 0.0 | 0.00 | 2.11 | 2.11 | 99 | 12.7 |
| 20260506213010 | 10 | 0 | 0.0 | 0.0 | 0.00 | 2.11 | 2.11 | 99 | 12.6 |
| 20260506211011 | 10 | 0 | 0.0 | 0.0 | 0.00 | 2.11 | 2.11 | 99 | 12.6 |
| 20260506210011 | 10 | 0 | 0.0 | 0.0 | 0.00 | 2.11 | 2.11 | 99 | 12.6 |
| 20260506205010 | 10 | 0 | 0.0 | 0.0 | 0.00 | 2.11 | 2.11 | 99 | 12.5 |
| 20260506204011 | 10 | 0 | 0.0 | 0.0 | 0.00 | 2.11 | 2.11 | 99 | 12.5 |
| 20260506202011 | 10 | 0 | 0.0 | 0.0 | 0.00 | 2.11 | 2.11 | 99 | 12.2 |
| 20260506200010 | 10 | 0 | 0.0 | 0.0 | 0.00 | 2.11 | 2.11 | 99 | 12.1 |
| 20260506195010 | 10 | 0 | 0.0 | 0.0 | 0.00 | 2.11 | 2.11 | 99 | 12.0 |
| 20260506193010 | 10 | 0 | 0.0 | 0.0 | 0.00 | 2.11 | 2.11 | 99 | 11.8 |
| 20260506192010 | 10 | 0 | 0.0 | 0.0 | 0.00 | 2.11 | 2.11 | 98 | 11.7 |
| 20260506191010 | 10 | 0 | 0.0 | 0.0 | 0.00 | 2.11 | 2.11 | 98 | 11.6 |
| 20260506185010 | 10 | 135 | 0.0 | 4.8 | 0.03 | 2.11 | 2.11 | 98 | 11.6 |
| 20260506184010 | 10 | 135 | 3.2 | 6.4 | 0.05 | 2.11 | 2.11 | 98 | 11.5 |
| 20260506183010 | 10 | 135 | 3.2 | 8.0 | 0.05 | 2.11 | 2.11 | 98 | 11.4 |
| 20260506182010 | 10 | 135 | 4.8 | 9.7 | 0.05 | 2.11 | 2.11 | 98 | 11.2 |
| 20260506180011 | 10 | 157 | 4.8 | 11.3 | 0.10 | 2.11 | 2.11 | 98 | 11.0 |
| 20260506175010 | 10 | 135 | 1.6 | 4.8 | 0.13 | 2.08 | 2.08 | 98 | 10.9 |
| 20260506174010 | 10 | 135 | 3.2 | 6.4 | 0.13 | 2.06 | 2.06 | 98 | 10.8 |
| 20260506171010 | 10 | 157 | 0.0 | 6.4 | 0.10 | 2.03 | 2.03 | 98 | 10.8 |
| 20260506170011 | 10 | 180 | 1.6 | 8.0 | 0.08 | 2.01 | 2.01 | 98 | 10.8 |
| 20260506165010 | 10 | 0 | 0.0 | 0.0 | 0.05 | 1.96 | 1.96 | 98 | 10.6 |
| 20260506164010 | 10 | 0 | 0.0 | 0.0 | 0.10 | 1.93 | 1.93 | 98 | 10.5 |
| 20260506163010 | 10 | 0 | 0.0 | 0.0 | 0.61 | 1.93 | 1.93 | 97 | 10.5 |
| 20260506162010 | 10 | 0 | 0.0 | 0.0 | 0.84 | 1.93 | 1.93 | 97 | 10.5 |
| 20260506161010 | 10 | 22 | 4.8 | 6.4 | 0.86 | 1.93 | 1.93 | 97 | 10.4 |
| 20260506155010 | 10 | 0 | 0.0 | 0.0 | 0.89 | 1.91 | 1.91 | 96 | 10.6 |
| 20260506152005 | 12 | 270 | 4.8 | 19.3 | 0.08 | 1.09 | 1.09 | 94 | 10.4 |
| 20260506151005 | 12 | 135 | 11.3 | 17.7 | 0.05 | 1.07 | 1.07 | 95 | 9.7 |
| 20260506145005 | 12 | 157 | 8.0 | 16.1 | 0.00 | 1.02 | 1.02 | 93 | 9.8 |
| 20260506143005 | 13 | 157 | 11.3 | 17.7 | 0.00 | 1.02 | 1.02 | 92 | 9.6 |
| 20260506142005 | 14 | 157 | 11.3 | 17.7 | 0.00 | 1.02 | 1.02 | 93 | 9.5 |
| 20260506141005 | 13 | 157 | 9.7 | 16.1 | 0.05 | 1.02 | 1.02 | 94 | 9.6 |
| 20260506140005 | 13 | 157 | 9.7 | 16.1 | 0.05 | 1.02 | 1.02 | 95 | 9.8 |
| 20260506135005 | 13 | 157 | 8.0 | 17.7 | 0.05 | 1.02 | 1.02 | 94 | 9.8 |
| 20260506133005 | 13 | 157 | 8.0 | 14.5 | 0.05 | 1.02 | 1.02 | 95 | 9.9 |
| 20260506132005 | 13 | 157 | 4.8 | 14.5 | 0.05 | 1.02 | 1.02 | 94 | 9.9 |
| 20260506131004 | 13 | 157 | 6.4 | 16.1 | 0.00 | 0.99 | 0.99 | 93 | 9.9 |
| 20260506130005 | 13 | 157 | 6.4 | 14.5 | 0.00 | 0.99 | 0.99 | 95 | 9.8 |
| 20260506125005 | 13 | 157 | 9.7 | 14.5 | 0.00 | 0.99 | 0.99 | 95 | 9.8 |
| 20260506124005 | 13 | 157 | 8.0 | 17.7 | 0.03 | 0.99 | 0.99 | 95 | 9.8 |
| 20260506122004 | 12 | 180 | 4.8 | 12.9 | 0.03 | 0.99 | 0.99 | 96 | 9.9 |
| 20260506121004 | 12 | 157 | 4.8 | 12.9 | 0.05 | 0.99 | 0.99 | 96 | 9.9 |
| 20260506115005 | 12 | 157 | 3.2 | 11.3 | 0.08 | 0.99 | 0.99 | 97 | 10.0 |
| 20260506113004 | 11 | 157 | 4.8 | 11.3 | 0.10 | 0.97 | 0.97 | 98 | 10.1 |
| 20260506112004 | 11 | 157 | 3.2 | 11.3 | 0.13 | 0.97 | 0.97 | 98 | 10.2 |
| 20260506111004 | 11 | 180 | 3.2 | 9.7 | 0.13 | 0.94 | 0.94 | 98 | 10.2 |
| 20260506110005 | 11 | 180 | 1.6 | 9.7 | 0.13 | 0.91 | 0.91 | 98 | 10.1 |
| 20260506105004 | 11 | 202 | 3.2 | 11.3 | 0.15 | 0.89 | 0.89 | 98 | 10.2 |
| 20260506104004 | 11 | 225 | 3.2 | 11.3 | 0.20 | 0.89 | 0.89 | 98 | 10.1 |
| 20260506103004 | 11 | 202 | 3.2 | 9.7 | 0.20 | 0.86 | 0.86 | 98 | 10.1 |
| 20260506102004 | 11 | 225 | 3.2 | 8.0 | 0.20 | 0.84 | 0.84 | 98 | 9.9 |
| 20260506101004 | 11 | 225 | 3.2 | 8.0 | 0.20 | 0.81 | 0.81 | 98 | 9.8 |
| 20260506100005 | 11 | 225 | 1.6 | 9.7 | 0.20 | 0.79 | 0.79 | 98 | 9.7 |
| 20260506094004 | 11 | 225 | 1.6 | 6.4 | 0.15 | 0.71 | 0.71 | 99 | 9.5 |
| 20260506093004 | 11 | 225 | 1.6 | 4.8 | 0.15 | 0.66 | 0.66 | 99 | 9.5 |
| 20260506092004 | 11 | 202 | 1.6 | 6.4 | 0.15 | 0.64 | 0.64 | 98 | 9.3 |
| 20260506091005 | 11 | 202 | 1.6 | 4.8 | 0.15 | 0.61 | 0.61 | 98 | 9.3 |
| 20260506090005 | 11 | 225 | 0.0 | 4.8 | 0.15 | 0.61 | 0.61 | 98 | 9.2 |
| 20260506085004 | 11 | 202 | 1.6 | 8.0 | 0.18 | 0.58 | 0.58 | 98 | 9.0 |